Date String (YYYY-MM-DD hh:mm:ss) UTC,Instrument flags,absolute air pressure of the measurement (hPa),sample flow rate (lpm),inlet stack bypass flow (lpm),air temperature of the measurement (°C),ambient temperature measured by the external sensor (°C),aerosol sample conditioner tube jacket temperature (°C),OPC LED temperature (°C),internal box temperature (°C),relative humidity of the measurement (%),span deviation,mass concentration of particles derived from Lorenz-Mie calculation of OPC scattering (μg/m³),mass concentration of particles derived from Lorenz-Mie calculation of OPC scattering (μg/m³),mass concentration of particles derived from Lorenz-Mie calculation of OPC scattering (μg/m³)
DateTimeUTC,F1_M11,P_M11,Q1_M11,Q2_M11,T1_M11,T2_M11,T3_M11,T4_M11,T5_M11,U1_M11,ZSPAN_M11,X2_M11,X0_M11,X1_M11
2024-02-27 07:00:00,SystemResetWarning,0813.0,5.01,000.00,021.5,020.6,000.0,030.0,023.2,17.2,0000.0,0001.73,0004.75,0000.74
2024-02-27 07:01:00,SystemResetWarning,0812.9,5.01,000.00,021.5,020.6,000.0,030.0,023.2,17.2,0000.0,0001.72,0004.95,0000.74
2024-02-27 07:02:00,SystemResetWarning,0813.0,5.01,000.00,021.4,020.6,000.0,030.0,023.2,17.2,0000.0,0001.68,0004.94,0000.74
2024-02-27 07:03:00,SystemResetWarning,0812.9,5.00,000.00,021.4,020.6,000.0,030.0,023.2,17.2,0000.0,0001.72,0005.01,0000.74
2024-02-27 07:04:00,SystemResetWarning,0812.8,4.99,000.00,021.4,020.5,000.0,030.0,023.2,17.2,0000.0,0001.75,0004.92,0000.75
2024-02-27 07:05:00,SystemResetWarning,0812.8,4.99,000.00,021.4,020.5,000.0,029.9,023.2,17.2,0000.0,0001.72,0004.79,0000.76
2024-02-27 07:06:00,SystemResetWarning,0812.8,5.00,000.00,021.4,020.5,000.0,029.9,023.2,17.1,0000.0,0001.77,0004.93,0000.75
2024-02-27 07:07:00,SystemResetWarning,0812.7,5.01,000.00,021.4,020.5,000.0,029.9,023.2,17.1,0000.0,0001.73,0004.66,0000.75
2024-02-27 07:08:00,SystemResetWarning,0812.7,5.01,000.00,021.4,020.5,000.0,029.9,023.2,17.1,0000.0,0001.78,0005.03,0000.74
2024-02-27 07:09:00,SystemResetWarning,0812.7,5.01,000.00,021.4,020.5,000.0,029.9,023.2,17.1,0000.0,0001.73,0005.37,0000.73
2024-02-27 07:10:00,SystemResetWarning,0812.7,5.00,000.00,021.4,020.5,000.0,029.9,023.2,17.1,0000.0,0001.68,0005.06,0000.73
2024-02-27 07:11:00,SystemResetWarning,0812.6,4.99,000.00,021.4,020.5,000.0,029.9,023.2,17.1,0000.0,0001.64,0004.90,0000.74
2024-02-27 07:12:00,SystemResetWarning,0812.7,4.99,000.00,021.4,020.5,000.0,029.9,023.2,17.1,0000.0,0001.63,0004.71,0000.73
2024-02-27 07:13:00,SystemResetWarning,0812.6,5.01,000.00,021.4,020.6,000.0,029.9,023.2,17.0,0000.0,0001.65,0004.60,0000.74
2024-02-27 07:14:00,SystemResetWarning,0812.6,5.00,000.00,021.4,020.6,000.0,029.9,023.2,17.0,0000.0,0001.61,0004.60,0000.74
2024-02-27 07:15:00,SystemResetWarning,0812.6,5.00,000.00,021.4,020.6,000.0,029.9,023.2,16.9,0000.0,0001.53,0004.48,0000.73
2024-02-27 07:16:00,SystemResetWarning,0812.6,5.00,000.00,021.4,020.6,000.0,029.9,023.2,16.9,0000.0,0001.51,0004.46,0000.73
2024-02-27 07:17:00,SystemResetWarning,0812.6,5.00,000.00,021.4,020.6,000.0,029.9,023.2,16.9,0000.0,0001.48,0004.36,0000.74
2024-02-27 07:18:00,SystemResetWarning,0812.6,5.00,000.00,021.4,020.6,000.0,029.9,023.2,16.8,0000.0,0001.49,0004.47,0000.74
2024-02-27 07:19:00,SystemResetWarning,0812.6,5.00,000.00,021.4,020.6,000.0,029.9,023.2,16.8,0000.0,0001.50,0005.10,0000.74
2024-02-27 07:20:00,SystemResetWarning,0812.6,5.00,000.00,021.4,020.6,000.0,029.9,023.2,16.8,0000.0,0001.52,0005.08,0000.74
2024-02-27 07:21:00,SystemResetWarning,0812.6,5.00,000.00,021.4,020.6,000.0,029.9,023.2,16.9,0000.0,0001.49,0004.87,0000.73
2024-02-27 07:22:00,SystemResetWarning,0812.6,5.00,000.00,021.4,020.6,000.0,029.9,023.2,16.9,0000.0,0001.48,0004.57,0000.72
2024-02-27 07:23:00,SystemResetWarning,0812.6,5.00,000.00,021.4,020.6,000.0,029.9,023.2,16.9,0000.0,0001.49,0004.53,0000.74
2024-02-27 07:24:00,SystemResetWarning,0812.5,5.00,000.00,021.4,020.6,000.0,029.9,023.2,16.8,0000.0,0001.55,0004.75,0000.74
2024-02-27 07:25:00,SystemResetWarning,0812.5,5.00,000.00,021.4,020.6,000.0,029.9,023.2,16.8,0000.0,0001.58,0005.29,0000.74
2024-02-27 07:26:00,SystemResetWarning,0812.5,5.00,000.00,021.4,020.6,000.0,029.9,023.2,16.8,0000.0,0001.61,0005.83,0000.73
2024-02-27 07:27:00,SystemResetWarning,0812.5,5.00,000.00,021.4,020.6,000.0,029.9,023.2,16.6,0000.0,0001.65,0005.93,0000.73
2024-02-27 07:28:00,SystemResetWarning,0812.4,5.00,000.00,021.4,020.6,000.0,029.9,023.2,16.7,0000.0,0001.62,0005.88,0000.73
2024-02-27 07:29:00,SystemResetWarning,0812.4,5.01,000.00,021.4,020.6,000.0,029.9,023.2,16.7,0000.0,0001.63,0005.88,0000.72
2024-02-27 07:30:00,SystemResetWarning,0812.4,5.00,000.00,021.4,020.6,000.0,029.9,023.2,16.7,0000.0,0001.58,0005.18,0000.71
2024-02-27 07:31:00,SystemResetWarning,0812.4,5.00,000.00,021.4,020.6,000.0,029.9,023.2,16.7,0000.0,0001.57,0004.51,0000.73
2024-02-27 07:32:00,SystemResetWarning,0812.4,5.00,000.00,021.4,020.6,000.0,029.9,023.2,16.7,0000.0,0001.56,0004.60,0000.73
2024-02-27 07:33:00,SystemResetWarning,0812.4,4.99,000.00,021.4,020.6,000.0,029.9,023.2,16.8,0000.0,0001.56,0005.15,0000.75
2024-02-27 07:34:00,SystemResetWarning,0812.4,5.00,000.00,021.4,020.6,000.0,029.9,023.2,16.8,0000.0,0001.58,0005.25,0000.74
2024-02-27 07:35:00,SystemResetWarning,0812.4,5.00,000.00,021.4,020.6,000.0,029.8,023.2,16.8,0000.0,0001.54,0005.13,0000.73
2024-02-27 07:36:00,SystemResetWarning,0812.4,5.00,000.00,021.4,020.6,000.0,029.8,023.2,16.8,0000.0,0001.51,0004.57,0000.73
2024-02-27 07:37:00,SystemResetWarning,0812.4,5.00,000.00,021.4,020.6,000.0,029.9,023.2,16.9,0000.0,0001.49,0004.10,0000.73
2024-02-27 07:38:00,SystemResetWarning,0812.4,5.01,000.00,021.4,020.6,000.0,029.8,023.2,16.9,0000.0,0001.48,0003.97,0000.73
2024-02-27 07:39:00,SystemResetWarning,0812.4,5.01,000.00,021.4,020.6,000.0,029.8,023.2,16.8,0000.0,0001.54,0004.17,0000.72
2024-02-27 07:40:00,SystemResetWarning,0812.4,5.00,000.00,021.4,020.6,000.0,029.8,023.2,16.8,0000.0,0001.55,0004.35,0000.72
2024-02-27 07:41:00,SystemResetWarning,0812.4,4.99,000.00,021.4,020.6,000.0,029.8,023.2,16.9,0000.0,0001.55,0004.38,0000.71
2024-02-27 07:42:00,SystemResetWarning,0812.4,5.00,000.00,021.4,020.6,000.0,029.8,023.2,16.8,0000.0,0001.55,0004.59,0000.70
2024-02-27 07:43:00,SystemResetWarning,0812.4,4.99,000.00,021.4,020.6,000.0,029.8,023.2,16.9,0000.0,0001.54,0005.41,0000.69
2024-02-27 07:44:00,SystemResetWarning,0812.4,5.00,000.00,021.4,020.6,000.0,029.8,023.2,16.9,0000.0,0001.52,0005.44,0000.68
2024-02-27 07:45:00,SystemResetWarning,0812.4,5.01,000.00,021.4,020.6,000.0,029.8,023.2,16.9,0000.0,0001.49,0005.34,0000.68
2024-02-27 07:46:00,SystemResetWarning,0812.4,5.01,000.00,021.4,020.6,000.0,029.8,023.2,16.8,0000.0,0001.44,0005.14,0000.67
2024-02-27 07:47:00,SystemResetWarning,0812.4,5.00,000.00,021.4,020.6,000.0,029.8,023.2,16.9,0000.0,0001.40,0005.02,0000.66
2024-02-27 07:48:00,SystemResetWarning,0812.4,5.00,000.00,021.4,020.6,000.0,029.8,023.2,16.8,0000.0,0001.40,0004.90,0000.65
2024-02-27 07:49:00,SystemResetWarning,0812.4,5.00,000.00,021.4,020.6,000.0,029.8,023.2,16.7,0000.0,0001.41,0005.88,0000.65
2024-02-27 07:50:00,SystemResetWarning,0812.3,5.00,000.00,021.4,020.6,000.0,029.8,023.2,16.6,0000.0,0001.42,0006.29,0000.65
2024-02-27 07:51:00,SystemResetWarning,0812.3,4.99,000.00,021.4,020.6,000.0,029.8,023.2,16.5,0000.0,0001.40,0006.06,0000.66
2024-02-27 07:52:00,SystemResetWarning,0812.2,4.99,000.00,021.4,020.6,000.0,029.8,023.2,16.5,0000.0,0001.39,0006.03,0000.66
2024-02-27 07:53:00,SystemResetWarning,0812.2,5.00,000.00,021.4,020.6,000.0,029.8,023.1,16.4,0000.0,0001.37,0005.76,0000.67
2024-02-27 07:54:00,SystemResetWarning,0812.2,4.99,000.00,021.4,020.6,000.0,029.8,023.1,16.3,0000.0,0001.37,0004.84,0000.66
2024-02-27 07:55:00,SystemResetWarning,0812.2,5.01,000.00,021.4,020.6,000.0,029.8,023.1,16.4,0000.0,0001.39,0004.20,0000.66
2024-02-27 07:56:00,SystemResetWarning,0812.0,5.01,000.00,021.4,020.6,000.0,029.8,023.2,16.2,0000.0,0001.41,0004.27,0000.66
2024-02-27 07:57:00,SystemResetWarning,0812.0,5.00,000.00,021.4,020.6,000.0,029.8,023.1,16.1,0000.0,0001.40,0004.35,0000.66
2024-02-27 07:58:00,SystemResetWarning,0812.0,5.00,000.00,021.4,020.6,000.0,029.8,023.1,16.0,0000.0,0001.41,0004.36,0000.68
2024-02-27 07:59:00,SystemResetWarning,0812.1,5.00,000.00,021.4,020.6,000.0,029.8,023.1,15.8,0000.0,0001.39,0004.41,0000.69
